Time,TemperatureF,DewpointF,PressureIn,WindDirection,WindDirectionDegrees,WindSpeedMPH,WindSpeedGustMPH,Humidity,HourlyPrecipIn,Conditions,Clouds,dailyrainin,SoftwareType,DateUTC
2013-01-17 00:02:00,32.0,28.0,30.26,NE,47,0.0,1.0,84,0.00,,,0.00,,2013-01-17 06:02:00,
2013-01-17 00:12:00,32.0,28.0,30.26,NE,47,0.0,1.0,84,0.00,,,0.00,,2013-01-17 06:12:00,
2013-01-17 00:22:00,30.0,26.0,30.28,NE,47,0.0,0.0,85,0.00,,,0.00,,2013-01-17 06:22:00,
2013-01-17 00:32:00,30.0,27.0,30.29,NE,45,0.0,2.0,87,0.00,,,0.00,,2013-01-17 06:32:00,
2013-01-17 00:42:00,30.0,27.0,30.29,NE,45,0.0,2.0,87,0.00,,,0.00,,2013-01-17 06:42:00,
2013-01-17 00:52:00,32.0,28.0,30.29,NNW,336,0.0,3.0,86,0.00,,,0.00,,2013-01-17 06:52:00,
2013-01-17 01:02:00,32.0,28.0,30.29,NW,319,0.0,3.0,84,0.00,,,0.00,,2013-01-17 07:02:00,
2013-01-17 01:12:00,32.0,28.0,30.29,NW,319,0.0,3.0,84,0.00,,,0.00,,2013-01-17 07:12:00,
2013-01-17 01:22:00,32.0,28.0,30.31,WSW,237,1.0,3.0,84,0.00,,,0.00,,2013-01-17 07:22:00,
2013-01-17 01:32:00,31.0,27.0,30.32,WSW,246,1.0,4.0,85,0.00,,,0.00,,2013-01-17 07:32:00,
2013-01-17 01:42:00,31.0,27.0,30.32,WSW,246,1.0,4.0,85,0.00,,,0.00,,2013-01-17 07:42:00,
2013-01-17 01:52:00,31.0,28.0,30.33,WSW,244,2.0,4.0,87,0.00,,,0.00,,2013-01-17 07:52:00,
2013-01-17 02:02:00,31.0,27.0,30.34,NNE,18,1.0,3.0,86,0.00,,,0.00,,2013-01-17 08:02:00,
2013-01-17 02:12:00,31.0,27.0,30.34,NNE,18,1.0,3.0,86,0.00,,,0.00,,2013-01-17 08:12:00,
2013-01-17 02:22:00,32.0,28.0,30.34,NE,39,0.0,4.0,84,0.00,,,0.00,,2013-01-17 08:22:00,
2013-01-17 02:32:00,32.0,28.0,30.35,NE,40,0.0,3.0,84,0.00,,,0.00,,2013-01-17 08:32:00,
2013-01-17 02:43:00,32.0,28.0,30.35,NE,40,0.0,3.0,84,0.00,,,0.00,,2013-01-17 08:43:00,
2013-01-17 02:53:00,31.0,27.0,30.35,NE,45,0.0,3.0,85,0.00,,,0.00,,2013-01-17 08:53:00,
2013-01-17 03:02:00,30.0,26.0,30.35,NE,56,0.0,2.0,86,0.00,,,0.00,,2013-01-17 09:02:00,
2013-01-17 03:12:00,30.0,26.0,30.35,NE,56,0.0,2.0,86,0.00,,,0.00,,2013-01-17 09:12:00,
2013-01-17 03:22:00,30.0,27.0,30.35,ENE,62,0.0,1.0,87,0.00,,,0.00,,2013-01-17 09:22:00,
2013-01-17 03:32:00,29.0,26.0,30.36,South,177,0.0,2.0,88,0.00,,,0.00,,2013-01-17 09:32:00,
2013-01-17 03:42:00,29.0,26.0,30.36,South,177,0.0,2.0,88,0.00,,,0.00,,2013-01-17 09:42:00,
2013-01-17 03:52:00,29.0,26.0,30.37,SSE,164,0.0,1.0,88,0.00,,,0.00,,2013-01-17 09:52:00,
2013-01-17 04:02:00,29.0,26.0,30.37,SSE,160,0.0,1.0,89,0.00,,,0.00,,2013-01-17 10:02:00,
2013-01-17 04:12:00,29.0,26.0,30.37,SSE,160,0.0,1.0,89,0.00,,,0.00,,2013-01-17 10:12:00,
2013-01-17 04:22:00,29.0,26.0,30.37,West,269,2.0,4.0,89,0.00,,,0.00,,2013-01-17 10:22:00,
2013-01-17 04:32:00,28.0,25.0,30.38,West,263,3.0,4.0,90,0.00,,,0.00,,2013-01-17 10:32:00,
2013-01-17 04:42:00,28.0,25.0,30.38,West,263,3.0,4.0,90,0.00,,,0.00,,2013-01-17 10:42:00,
2013-01-17 04:53:00,29.0,26.0,30.39,West,261,2.0,5.0,89,0.00,,,0.00,,2013-01-17 10:53:00,
2013-01-17 05:02:00,29.0,26.0,30.39,West,266,0.0,3.0,88,0.00,,,0.00,,2013-01-17 11:02:00,
2013-01-17 05:12:00,29.0,26.0,30.39,West,266,0.0,3.0,88,0.00,,,0.00,,2013-01-17 11:12:00,
2013-01-17 05:22:00,26.0,23.0,30.40,West,266,1.0,2.0,88,0.00,,,0.00,,2013-01-17 11:22:00,
2013-01-17 05:33:00,27.0,24.0,30.40,West,266,0.0,2.0,90,0.00,,,0.00,,2013-01-17 11:33:00,
2013-01-17 05:42:00,27.0,24.0,30.40,West,266,0.0,2.0,90,0.00,,,0.00,,2013-01-17 11:42:00,
2013-01-17 05:53:00,28.0,26.0,30.40,West,267,1.0,3.0,91,0.00,,,0.00,,2013-01-17 11:53:00,
2013-01-17 06:02:00,28.0,25.0,30.40,West,268,2.0,3.0,89,0.00,,,0.00,,2013-01-17 12:02:00,
2013-01-17 06:12:00,28.0,25.0,30.40,West,268,2.0,3.0,89,0.00,,,0.00,,2013-01-17 12:12:00,
2013-01-17 06:22:00,28.0,25.0,30.41,West,269,1.0,4.0,89,0.00,,,0.00,,2013-01-17 12:22:00,
2013-01-17 06:32:00,28.0,25.0,30.41,South,182,0.0,6.0,90,0.00,,,0.00,,2013-01-17 12:32:00,
2013-01-17 06:42:00,28.0,25.0,30.41,South,182,0.0,6.0,90,0.00,,,0.00,,2013-01-17 12:42:00,
2013-01-17 06:53:00,28.0,25.0,30.42,West,268,1.0,5.0,90,0.00,,,0.00,,2013-01-17 12:53:00,
2013-01-17 07:03:00,28.0,25.0,30.42,SSW,209,0.0,4.0,89,0.00,,,0.00,,2013-01-17 13:03:00,
2013-01-17 07:12:00,28.0,25.0,30.42,SSW,209,0.0,4.0,89,0.00,,,0.00,,2013-01-17 13:12:00,
2013-01-17 07:22:00,28.0,25.0,30.42,WSW,252,1.0,4.0,90,0.00,,,0.00,,2013-01-17 13:22:00,
2013-01-17 07:33:00,28.0,25.0,30.43,SW,232,1.0,4.0,90,0.00,,,0.00,,2013-01-17 13:33:00,
2013-01-17 07:43:00,28.0,25.0,30.43,SW,232,1.0,4.0,90,0.00,,,0.00,,2013-01-17 13:43:00,
2013-01-17 07:53:00,28.0,25.0,30.43,West,261,2.0,4.0,90,0.00,,,0.00,,2013-01-17 13:53:00,
2013-01-17 08:03:00,28.0,25.0,30.44,WSW,245,1.0,4.0,90,0.00,,,0.00,,2013-01-17 14:03:00,
2013-01-17 08:12:00,28.0,25.0,30.44,WSW,245,1.0,4.0,90,0.00,,,0.00,,2013-01-17 14:12:00,
2013-01-17 08:23:00,27.0,24.0,30.45,West,266,3.0,5.0,90,0.00,,,0.00,,2013-01-17 14:23:00,
2013-01-17 08:33:00,27.0,24.0,30.45,West,267,1.0,4.0,90,0.00,,,0.00,,2013-01-17 14:33:00,
2013-01-17 08:42:00,27.0,24.0,30.45,West,267,1.0,4.0,90,0.00,,,0.00,,2013-01-17 14:42:00,
2013-01-17 08:53:00,28.0,26.0,30.46,West,264,1.0,3.0,92,0.00,,,0.00,,2013-01-17 14:53:00,
2013-01-17 09:03:00,29.0,27.0,30.47,West,259,1.0,3.0,91,0.00,,,0.00,,2013-01-17 15:03:00,
2013-01-17 09:12:00,29.0,27.0,30.47,West,259,1.0,3.0,91,0.00,,,0.00,,2013-01-17 15:12:00,
2013-01-17 09:22:00,30.0,28.0,30.48,WSW,257,3.0,6.0,91,0.00,,,0.00,,2013-01-17 15:22:00,
2013-01-17 09:33:00,31.0,28.0,30.48,WSW,258,3.0,6.0,90,0.00,,,0.00,,2013-01-17 15:33:00,
2013-01-17 09:43:00,31.0,28.0,30.48,WSW,258,3.0,6.0,90,0.00,,,0.00,,2013-01-17 15:43:00,
2013-01-17 09:53:00,32.0,29.0,30.49,West,262,3.0,6.0,89,0.00,,,0.00,,2013-01-17 15:53:00,
2013-01-17 10:02:00,34.0,31.0,30.50,WSW,248,2.0,5.0,87,0.00,,,0.00,,2013-01-17 16:02:00,
2013-01-17 10:12:00,34.0,31.0,30.50,WSW,248,2.0,5.0,87,0.00,,,0.00,,2013-01-17 16:12:00,
2013-01-17 10:23:00,35.0,31.0,30.50,WSW,244,3.0,6.0,84,0.00,,,0.00,,2013-01-17 16:23:00,
2013-01-17 10:33:00,35.0,31.0,30.50,WSW,244,3.0,6.0,84,0.00,,,0.00,,2013-01-17 16:33:00,
2013-01-17 10:43:00,35.0,31.0,30.50,WSW,244,3.0,6.0,84,0.00,,,0.00,,2013-01-17 16:43:00,
2013-01-17 10:53:00,38.0,32.0,30.50,West,260,2.0,6.0,78,0.00,,,0.00,,2013-01-17 16:53:00,
2013-01-17 11:03:00,40.0,33.0,30.50,South,189,2.0,6.0,75,0.00,,,0.00,,2013-01-17 17:03:00,
2013-01-17 11:13:00,40.0,33.0,30.50,South,189,2.0,6.0,75,0.00,,,0.00,,2013-01-17 17:13:00,
2013-01-17 11:22:00,41.0,33.0,30.49,West,259,3.0,7.0,72,0.00,,,0.00,,2013-01-17 17:22:00,
2013-01-17 11:33:00,43.0,34.0,30.49,WSW,248,2.0,7.0,69,0.00,,,0.00,,2013-01-17 17:33:00,
2013-01-17 11:43:00,43.0,34.0,30.49,WSW,248,2.0,7.0,69,0.00,,,0.00,,2013-01-17 17:43:00,
2013-01-17 11:53:00,45.0,34.0,30.48,SSE,152,1.0,5.0,66,0.00,,,0.00,,2013-01-17 17:53:00,
2013-01-17 12:03:00,45.0,34.0,30.47,SSE,161,3.0,8.0,64,0.00,,,0.00,,2013-01-17 18:03:00,
2013-01-17 12:12:00,45.0,34.0,30.47,SSE,161,3.0,8.0,64,0.00,,,0.00,,2013-01-17 18:12:00,
2013-01-17 12:22:00,46.0,34.0,30.47,West,260,5.0,10.0,63,0.00,,,0.00,,2013-01-17 18:22:00,
2013-01-17 12:33:00,47.0,35.0,30.46,West,260,5.0,11.0,62,0.00,,,0.00,,2013-01-17 18:33:00,
2013-01-17 12:43:00,47.0,35.0,30.46,West,260,5.0,11.0,62,0.00,,,0.00,,2013-01-17 18:43:00,
2013-01-17 12:53:00,48.0,34.0,30.45,West,262,5.0,9.0,59,0.00,,,0.00,,2013-01-17 18:53:00,
2013-01-17 13:03:00,49.0,34.0,30.45,WSW,257,4.0,9.0,57,0.00,,,0.00,,2013-01-17 19:03:00,
2013-01-17 13:12:00,49.0,34.0,30.45,WSW,257,4.0,9.0,57,0.00,,,0.00,,2013-01-17 19:12:00,
2013-01-17 13:23:00,50.0,34.0,30.44,NNE,27,2.0,9.0,55,0.00,,,0.00,,2013-01-17 19:23:00,
2013-01-17 13:33:00,51.0,34.0,30.43,WSW,255,4.0,9.0,52,0.00,,,0.00,,2013-01-17 19:33:00,
2013-01-17 13:43:00,51.0,34.0,30.43,WSW,255,4.0,9.0,52,0.00,,,0.00,,2013-01-17 19:43:00,
2013-01-17 13:53:00,52.0,34.0,30.42,NE,46,1.0,7.0,51,0.00,,,0.00,,2013-01-17 19:53:00,
2013-01-17 14:03:00,52.0,33.0,30.42,WSW,242,3.0,9.0,49,0.00,,,0.00,,2013-01-17 20:03:00,
2013-01-17 14:12:00,52.0,33.0,30.42,WSW,242,3.0,9.0,49,0.00,,,0.00,,2013-01-17 20:12:00,
2013-01-17 14:23:00,53.0,34.0,30.41,WSW,258,1.0,8.0,49,0.00,,,0.00,,2013-01-17 20:23:00,
2013-01-17 14:33:00,54.0,34.0,30.40,WSW,253,1.0,8.0,46,0.00,,,0.00,,2013-01-17 20:33:00,
2013-01-17 14:43:00,54.0,34.0,30.40,WSW,253,1.0,8.0,46,0.00,,,0.00,,2013-01-17 20:43:00,
2013-01-17 14:53:00,54.0,33.0,30.40,WSW,252,3.0,7.0,45,0.00,,,0.00,,2013-01-17 20:53:00,
2013-01-17 15:03:00,55.0,33.0,30.40,WSW,252,0.0,5.0,44,0.00,,,0.00,,2013-01-17 21:03:00,
2013-01-17 15:13:00,55.0,33.0,30.40,WSW,252,0.0,5.0,44,0.00,,,0.00,,2013-01-17 21:13:00,
2013-01-17 15:23:00,54.0,31.0,30.39,WSW,249,5.0,10.0,42,0.00,,,0.00,,2013-01-17 21:23:00,
2013-01-17 15:33:00,56.0,33.0,30.40,WSW,242,0.0,5.0,42,0.00,,,0.00,,2013-01-17 21:33:00,
2013-01-17 15:43:00,56.0,33.0,30.40,WSW,242,0.0,5.0,42,0.00,,,0.00,,2013-01-17 21:43:00,
2013-01-17 15:52:00,56.0,33.0,30.40,West,261,2.0,7.0,41,0.00,,,0.00,,2013-01-17 21:52:00,
2013-01-17 16:03:00,56.0,33.0,30.40,WSW,258,1.0,5.0,42,0.00,,,0.00,,2013-01-17 22:03:00,
2013-01-17 16:12:00,56.0,33.0,30.40,WSW,258,1.0,5.0,42,0.00,,,0.00,,2013-01-17 22:12:00,
2013-01-17 16:22:00,55.0,32.0,30.40,West,262,1.0,6.0,41,0.00,,,0.00,,2013-01-17 22:22:00,
2013-01-17 16:33:00,55.0,32.0,30.40,West,262,1.0,6.0,41,0.00,,,0.00,,2013-01-17 22:33:00,
2013-01-17 16:43:00,55.0,32.0,30.40,West,262,1.0,6.0,41,0.00,,,0.00,,2013-01-17 22:43:00,
2013-01-17 16:52:00,56.0,31.0,30.40,WSW,252,0.0,2.0,39,0.00,,,0.00,,2013-01-17 22:52:00,
2013-01-17 17:03:00,56.0,31.0,30.40,WSW,256,0.0,3.0,39,0.00,,,0.00,,2013-01-17 23:03:00,
2013-01-17 17:12:00,56.0,31.0,30.40,WSW,256,0.0,3.0,39,0.00,,,0.00,,2013-01-17 23:12:00,
2013-01-17 17:22:00,55.0,31.0,30.40,West,259,0.0,1.0,40,0.00,,,0.00,,2013-01-17 23:22:00,
2013-01-17 17:33:00,55.0,31.0,30.40,West,259,0.0,1.0,40,0.00,,,0.00,,2013-01-17 23:33:00,
2013-01-17 17:43:00,55.0,31.0,30.40,West,259,0.0,1.0,40,0.00,,,0.00,,2013-01-17 23:43:00,
2013-01-17 17:53:00,52.0,31.0,30.40,West,261,0.0,1.0,45,0.00,,,0.00,,2013-01-17 23:53:00,
2013-01-17 18:03:00,50.0,31.0,30.40,West,261,0.0,1.0,47,0.00,,,0.00,,2013-01-18 00:03:00,
2013-01-17 18:12:00,50.0,31.0,30.40,West,261,0.0,1.0,47,0.00,,,0.00,,2013-01-18 00:12:00,
2013-01-17 18:23:00,48.0,31.0,30.40,West,261,0.0,1.0,51,0.00,,,0.00,,2013-01-18 00:23:00,
2013-01-17 18:32:00,48.0,31.0,30.40,West,261,0.0,1.0,51,0.00,,,0.00,,2013-01-18 00:32:00,
2013-01-17 18:42:00,46.0,29.0,30.40,West,261,0.0,0.0,52,0.00,,,0.00,,2013-01-18 00:42:00,
2013-01-17 18:52:00,43.0,29.0,30.40,West,259,0.0,1.0,57,0.00,,,0.00,,2013-01-18 00:52:00,
2013-01-17 19:03:00,41.0,29.0,30.40,SSE,161,0.0,1.0,61,0.00,,,0.00,,2013-01-18 01:03:00,
2013-01-17 19:12:00,41.0,29.0,30.40,SSE,161,0.0,1.0,61,0.00,,,0.00,,2013-01-18 01:12:00,
2013-01-17 19:22:00,40.0,29.0,30.39,South,175,0.0,3.0,64,0.00,,,0.00,,2013-01-18 01:22:00,
2013-01-17 19:33:00,39.0,28.0,30.39,South,169,0.0,3.0,64,0.00,,,0.00,,2013-01-18 01:33:00,
2013-01-17 19:43:00,39.0,28.0,30.39,South,169,0.0,3.0,64,0.00,,,0.00,,2013-01-18 01:43:00,
2013-01-17 19:52:00,39.0,29.0,30.39,West,277,1.0,4.0,68,0.00,,,0.00,,2013-01-18 01:52:00,
2013-01-17 20:02:00,40.0,29.0,30.39,West,277,3.0,5.0,64,0.00,,,0.00,,2013-01-18 02:02:00,
2013-01-17 20:12:00,40.0,29.0,30.39,West,277,3.0,5.0,64,0.00,,,0.00,,2013-01-18 02:12:00,
2013-01-17 20:22:00,38.0,29.0,30.39,West,264,3.0,6.0,69,0.00,,,0.00,,2013-01-18 02:22:00,
2013-01-17 20:33:00,36.0,28.0,30.38,West,273,3.0,6.0,71,0.00,,,0.00,,2013-01-18 02:33:00,
2013-01-17 20:42:00,36.0,28.0,30.38,West,273,3.0,6.0,71,0.00,,,0.00,,2013-01-18 02:42:00,
2013-01-17 20:52:00,35.0,27.0,30.38,West,276,3.0,5.0,73,0.00,,,0.00,,2013-01-18 02:52:00,
2013-01-17 21:02:00,35.0,28.0,30.38,WNW,282,3.0,5.0,74,0.00,,,0.00,,2013-01-18 03:02:00,
2013-01-17 21:12:00,35.0,28.0,30.38,WNW,282,3.0,5.0,74,0.00,,,0.00,,2013-01-18 03:12:00,
2013-01-17 21:23:00,35.0,28.0,30.38,WSW,245,3.0,6.0,75,0.00,,,0.00,,2013-01-18 03:23:00,
2013-01-17 21:33:00,35.0,28.0,30.38,WSW,244,3.0,6.0,74,0.00,,,0.00,,2013-01-18 03:33:00,
2013-01-17 21:42:00,35.0,28.0,30.38,WSW,244,3.0,6.0,74,0.00,,,0.00,,2013-01-18 03:42:00,
2013-01-17 21:52:00,35.0,28.0,30.38,West,266,3.0,5.0,76,0.00,,,0.00,,2013-01-18 03:52:00,
2013-01-17 22:02:00,34.0,28.0,30.37,West,276,3.0,5.0,77,0.00,,,0.00,,2013-01-18 04:02:00,
2013-01-17 22:12:00,34.0,28.0,30.37,West,276,3.0,5.0,77,0.00,,,0.00,,2013-01-18 04:12:00,
2013-01-17 22:22:00,33.0,27.0,30.37,West,279,4.0,6.0,79,0.00,,,0.00,,2013-01-18 04:22:00,
2013-01-17 22:33:00,32.0,27.0,30.37,WSW,253,4.0,6.0,81,0.00,,,0.00,,2013-01-18 04:33:00,
2013-01-17 22:42:00,32.0,27.0,30.37,WSW,253,4.0,6.0,81,0.00,,,0.00,,2013-01-18 04:42:00,
2013-01-17 22:52:00,33.0,28.0,30.37,West,265,4.0,6.0,81,0.00,,,0.00,,2013-01-18 04:52:00,
2013-01-17 23:03:00,33.0,28.0,30.36,WSW,258,3.0,6.0,82,0.00,,,0.00,,2013-01-18 05:03:00,
2013-01-17 23:12:00,33.0,28.0,30.36,WSW,258,3.0,6.0,82,0.00,,,0.00,,2013-01-18 05:12:00,
2013-01-17 23:22:00,33.0,28.0,30.36,WSW,258,3.0,6.0,82,0.00,,,0.00,,2013-01-18 05:22:00,
2013-01-17 23:33:00,33.0,28.0,30.35,West,263,4.0,6.0,82,0.00,,,0.00,,2013-01-18 05:33:00,
2013-01-17 23:43:00,33.0,28.0,30.35,West,263,4.0,6.0,82,0.00,,,0.00,,2013-01-18 05:43:00,
2013-01-17 23:53:00,33.0,28.0,30.35,WSW,250,3.0,6.0,82,0.00,,,0.00,,2013-01-18 05:53:00,